When you browse on this site, cookies collect data to enhance your experience and personalize the content and advertising you see.
Visit our Privacy Policy to learn more. By continuing to use the site, you agree to this use of cookies and data.
  • In Denmark
  • List of Countries
  • For 7 days
  • Water Temperature
  • Weather Map
  • Weather Widgets
  • user-avatar
    Login

    Hourly Weather Retwiny

    Today, 20 February, Thursday

    Time Temperature Precipitation Wind Pressure Humidity
    00:00 0°C° 0 mm 4 mps 749 mmHg 86%
    01:00 0°C° 0 mm 4 mps 749 mmHg 88%
    02:00 0°C° 0 mm 4 mps 750 mmHg 89%
    03:00 0°C° 0 mm 4 mps 750 mmHg 91%
    04:00 0°C° 0 mm 4 mps 750 mmHg 92%
    05:00 +1°C° 0 mm 3 mps 751 mmHg 93%
    06:00 0°C° 0 mm 3 mps 751 mmHg 94%
    07:00 0°C° 0 mm 3 mps 751 mmHg 95%
    08:00 0°C° 0 mm 3 mps 752 mmHg 91%
    09:00 +1°C° 0 mm 3 mps 753 mmHg 87%
    10:00 +3°C° 0 mm 2 mps 753 mmHg 83%
    11:00 +2°C° 0 mm 3 mps 753 mmHg 79%
    12:00 +3°C° 0 mm 3 mps 753 mmHg 76%
    13:00 +4°C° 0 mm 3 mps 753 mmHg 72%
    14:00 +4°C° 0 mm 3 mps 753 mmHg 72%
    15:00 +4°C° 0 mm 3 mps 753 mmHg 72%
    16:00 +4°C° 0 mm 3 mps 753 mmHg 72%
    17:00 +3°C° 0 mm 4 mps 752 mmHg 74%
    18:00 +3°C° 0 mm 4 mps 752 mmHg 76%
    19:00 +1°C° 0 mm 4 mps 752 mmHg 78%
    20:00 +1°C° 0 mm 5 mps 752 mmHg 77%
    21:00 +1°C° 0 mm 6 mps 751 mmHg 76%
    22:00 +1°C° 0 mm 6 mps 750 mmHg 75%
    23:00 0°C° 0 mm 7 mps 750 mmHg 73%

    Tomorrow, 21 February, Friday

    Time Temperature Precipitation Wind Pressure Humidity
    00:00 0°C° 0 mm 7 mps 749 mmHg 72%
    01:00 0°C° 0 mm 8 mps 749 mmHg 71%
    02:00 0°C° 0 mm 8 mps 748 mmHg 74%
    03:00 0°C° 0 mm 8 mps 746 mmHg 77%
    04:00 0°C° 0 mm 8 mps 745 mmHg 80%
    05:00 0°C° 0.5 mm 8 mps 745 mmHg 85%
    06:00 0°C° 0.5 mm 8 mps 745 mmHg 89%
    07:00 +1°C° 0.5 mm 8 mps 745 mmHg 94%
    14:00 +4°C° 0 mm 8 mps 751 mmHg 61%
    15:00 +4°C° 0 mm 7 mps 752 mmHg 63%
    16:00 +3°C° 0 mm 7 mps 752 mmHg 64%
    17:00 +3°C° 0 mm 6 mps 753 mmHg 68%
    18:00 +2°C° 0 mm 5 mps 753 mmHg 71%
    19:00 +2°C° 0 mm 5 mps 754 mmHg 75%
    20:00 +1°C° 0 mm 5 mps 754 mmHg 77%
    21:00 +1°C° 0 mm 5 mps 754 mmHg 80%
    22:00 +1°C° 0 mm 5 mps 754 mmHg 82%
    23:00 0°C° 0 mm 5 mps 755 mmHg 83%

    Day after tomorrow, 22 February, Saturday

    Time Temperature Precipitation Wind Pressure Humidity
    00:00 0°C° 0 mm 5 mps 755 mmHg 84%
    01:00 0°C° 0 mm 5 mps 755 mmHg 85%
    02:00 0°C° 0 mm 5 mps 755 mmHg 85%
    03:00 -1°C° 0 mm 5 mps 754 mmHg 86%
    04:00 -1°C° 0 mm 5 mps 754 mmHg 86%
    05:00 -2°C° 0 mm 6 mps 754 mmHg 88%
    06:00 -2°C° 0 mm 6 mps 754 mmHg 90%
    07:00 -1°C° 0 mm 7 mps 754 mmHg 92%
    08:00 -1°C° 0 mm 7 mps 753 mmHg 89%
    09:00 0°C° 0 mm 7 mps 752 mmHg 86%
    10:00 +1°C° 0 mm 8 mps 752 mmHg 84%
    11:00 +1°C° 0 mm 8 mps 751 mmHg 79%
    12:00 +2°C° 0 mm 9 mps 751 mmHg 74%
    13:00 +3°C° 0 mm 9 mps 750 mmHg 69%
    14:00 +3°C° 0.1 mm 9 mps 749 mmHg 70%
    15:00 +3°C° 0.1 mm 9 mps 748 mmHg 70%
    16:00 +2°C° 0.1 mm 9 mps 747 mmHg 71%
    17:00 +3°C° 0.1 mm 9 mps 747 mmHg 68%
    18:00 +3°C° 0.1 mm 9 mps 746 mmHg 65%
    19:00 +5°C° 0.1 mm 9 mps 746 mmHg 63%
    20:00 +5°C° 0 mm 9 mps 746 mmHg 65%
    21:00 +5°C° 0 mm 9 mps 745 mmHg 67%
    22:00 +5°C° 0 mm 9 mps 745 mmHg 69%
    23:00 +5°C° 0.4 mm 9 mps 745 mmHg 73%

    23 February, Sunday

    Time Temperature Precipitation Wind Pressure Humidity
    00:00 +5°C° 0.4 mm 8 mps 745 mmHg 76%
    01:00 +4°C° 0.4 mm 8 mps 745 mmHg 80%
    02:00 +4°C° 0.1 mm 8 mps 745 mmHg 79%
    03:00 +2°C° 0.1 mm 8 mps 745 mmHg 77%
    04:00 +2°C° 0.1 mm 7 mps 745 mmHg 75%
    05:00 +2°C° 0 mm 7 mps 745 mmHg 75%
    06:00 +2°C° 0 mm 7 mps 746 mmHg 75%
    07:00 +2°C° 0 mm 7 mps 746 mmHg 74%
    08:00 +2°C° 0 mm 7 mps 746 mmHg 76%
    09:00 +1°C° 0 mm 8 mps 746 mmHg 77%
    10:00 +1°C° 0 mm 8 mps 746 mmHg 78%
    11:00 +2°C° 0.1 mm 9 mps 746 mmHg 71%
    12:00 +2°C° 0.1 mm 9 mps 746 mmHg 65%
    13:00 +3°C° 0.1 mm 9 mps 746 mmHg 58%
    14:00 +3°C° 0.1 mm 9 mps 746 mmHg 60%
    15:00 +2°C° 0.1 mm 8 mps 745 mmHg 61%
    16:00 +3°C° 0.1 mm 7 mps 744 mmHg 63%
    17:00 +2°C° 0.2 mm 6 mps 744 mmHg 72%
    18:00 +1°C° 0.2 mm 5 mps 743 mmHg 81%
    19:00 +1°C° 0.2 mm 5 mps 743 mmHg 91%
    20:00 +1°C° 0.4 mm 5 mps 743 mmHg 90%
    21:00 +1°C° 0.4 mm 5 mps 742 mmHg 88%
    22:00 0°C° 0.4 mm 5 mps 742 mmHg 87%
    23:00 -1°C° 0.1 mm 6 mps 742 mmHg 85%

    24 February, Monday

    Time Temperature Precipitation Wind Pressure Humidity
    00:00 -1°C° 0.1 mm 6 mps 742 mmHg 82%
    01:00 -1°C° 0.1 mm 7 mps 742 mmHg 79%
    02:00 0°C° 0 mm 8 mps 743 mmHg 77%
    03:00 0°C° 0 mm 9 mps 743 mmHg 76%
    04:00 +1°C° 0 mm 10 mps 743 mmHg 74%
    05:00 0°C° 0 mm 9 mps 744 mmHg 71%
    06:00 0°C° 0 mm 9 mps 746 mmHg 69%
    07:00 0°C° 0 mm 8 mps 747 mmHg 67%
    08:00 0°C° 0 mm 8 mps 748 mmHg 64%
    09:00 +1°C° 0 mm 9 mps 749 mmHg 61%
    10:00 +2°C° 0 mm 9 mps 750 mmHg 58%
    11:00 +2°C° 0 mm 9 mps 751 mmHg 55%
    12:00 +3°C° 0 mm 9 mps 751 mmHg 51%
    13:00 +3°C° 0 mm 9 mps 752 mmHg 48%
    14:00 +4°C° 0 mm 8 mps 752 mmHg 48%
    15:00 +4°C° 0 mm 7 mps 753 mmHg 48%
    16:00 +3°C° 0 mm 6 mps 753 mmHg 48%
    17:00 +2°C° 0 mm 5 mps 753 mmHg 54%
    18:00 +1°C° 0 mm 4 mps 753 mmHg 60%
    19:00 +1°C° 0 mm 3 mps 754 mmHg 66%
    20:00 +1°C° 0 mm 3 mps 753 mmHg 68%
    21:00 +1°C° 0 mm 3 mps 753 mmHg 69%
    22:00 +1°C° 0 mm 3 mps 753 mmHg 71%
    23:00 0°C° 0 mm 4 mps 752 mmHg 72%

    25 February, Tuesday

    Time Temperature Precipitation Wind Pressure Humidity
    00:00 0°C° 0 mm 5 mps 751 mmHg 74%
    01:00 0°C° 0 mm 5 mps 749 mmHg 75%
    02:00 -1°C° 0.4 mm 7 mps 748 mmHg 80%
    03:00 -1°C° 0.4 mm 8 mps 747 mmHg 85%
    04:00 -3°C° 0.4 mm 9 mps 746 mmHg 90%
    05:00 -1°C° 0.9 mm 9 mps 745 mmHg 90%
    06:00 -1°C° 0.9 mm 8 mps 744 mmHg 90%
    07:00 -1°C° 0.9 mm 8 mps 743 mmHg 90%
    08:00 0°C° 0.4 mm 7 mps 742 mmHg 91%
    09:00 +3°C° 0.4 mm 6 mps 742 mmHg 93%
    10:00 +5°C° 0.4 mm 5 mps 742 mmHg 94%
    11:00 +6°C° 0.1 mm 5 mps 741 mmHg 92%
    12:00 +7°C° 0.1 mm 5 mps 741 mmHg 90%
    13:00 +8°C° 0.1 mm 4 mps 741 mmHg 88%
    14:00 +7°C° 0.2 mm 4 mps 740 mmHg 89%
    15:00 +7°C° 0.2 mm 4 mps 740 mmHg 89%
    16:00 +7°C° 0.2 mm 4 mps 739 mmHg 90%
    17:00 +7°C° 0.2 mm 4 mps 739 mmHg 91%
    18:00 +7°C° 0.2 mm 4 mps 739 mmHg 92%
    19:00 +6°C° 0.2 mm 4 mps 739 mmHg 94%
    20:00 +6°C° 0.5 mm 4 mps 738 mmHg 92%
    21:00 +6°C° 0.5 mm 4 mps 738 mmHg 90%
    22:00 +6°C° 0.5 mm 4 mps 738 mmHg 88%
    23:00 +5°C° 0.5 mm 4 mps 737 mmHg 87%
    Show more